STARLINK-36081, 67498

Orbit data source: Space-Track

STARLINK-36081, 67498 is a payload satellite owned by SpaceX/Seattle (US) in LEO that was launched on Sun, 18 Jan 2026 UTC via an FALCON 9 launch vehicle from the Air Force Eastern Test Range (AFETR). Payload-class satellites include a variety of spacecraft equipped with specific instruments for various scientific and technological missions. These include communications satellites like Starlink; space stations such as the ISS; scientific satellites like the Hubble; Earth observation satellites from companies like Planet Labs, Umbra, and HawkEye 360; GPS; miniature CubeSats for education and research; and military/defense satellites.

Loading next visibility...
Identifier
67498, 2026-012F
Orbit
LEO
Country
Flag of USUS
Related business
Manufacturer
SpaceX/Seattle
Mission
Operational Commercial Communications
Bus & Motor
STARLINK V2MO, Unknown motor
Mass
575 kg wet, ~530 kg dry
Launch date (UTC)
2026-01-18 (5 months ago)
Launch vehicle
FALCON 9
Launch site
Air Force Eastern Test Range (AFETR)
Object type
Payload
Rocket body
Debris
Shape & HBR
Box + 2 Pan, 17.7 m
Radar Cross Section
36.964 m², Large (>1 m²)

Expand to show TLE details & history
Last TLE update: 21 hours ago

TLE from 21 hours ago
0 STARLINK-36081
1 67498U 26012F   26170.97585752  .00016270  00000-0  59889-3 0  9997
2 67498  43.0023  96.8938 0001215 274.9001  85.1712 15.27610909 23406
Epoch: 2026-06-19T23:25Z
TLE epoch observation values (Epoch: 2026-06-19T23:25:14.089Z)
Latitude
-0.00003°
Longitude
-162.61205°
Altitude
482.662 km
Speed
7.626 km/s
True Right ascension
06h 27m 34s
True Declination
0° 00' 00"
Sunlit
Object was in daylight at epoch
Visualization orbit readout
Latitude
Unknown
Longitude
Unknown
Altitude
Unknown
Speed
Unknown
Apparent Right ascension
Unknown
Apparent Declination
Unknown
Sunlit
N/A
Visualization observer readout
Local Sidereal Time
07:21:08
Azimuth
Unknown
Elevation
Unknown
Doppler factor
Unknown
Orbital elements
Apogee altitude
485.735 km
Perigee altitude
484.067 km
Semi-major axis
6,863.038 km
Eccentricity
0.00012
Inclination
43.0023°
RAAN
96.8938°
Arg. of periapsis
274.9001°
True anomaly
85.18507°
Mean anomaly
85.1712°
Eccentric anomaly
85.17814°
Mean motion
3.81741 °/min
Orbital period
94.3 mins
BSTAR
0.00059889
Loading maneuver chart data...
Computing Atmospheric mass density...
Loading historical data...
Loading historical data...
Loading historical data...
Loading historical data...
Loading historical data...
Loading historical data...
Loading historical data...

Documentation

Showing up to 5 results
|